Regional Weather Roundup
Issued by NWS

Home | Current Version | Previous Version | Text Only | Print | Product List | Glossary Off
Versions: 1 2 3 4 5 6 7 8 9 10 11 12 13 14 15 16 17 18 19 20 21 22 23 24 25 26 27 28 29 30 31 32 33 34 35 36 37 38 39 40 41 42 43 44 45 46 47 48 49 50

379
ASUS43 KFSD 050902
RWRSD

WEATHER ROUNDUP FOR SOUTH DAKOTA
NATIONAL WEATHER SERVICE SIOUX FALLS SD
400 AM CDT THU MAY 05 2016

NOTE: "FAIR" INDICATES FEW OR NO CLOUDS BELOW 12,000 FEET WITH NO
SIGNIFICANT WEATHER AND/OR OBSTRUCTIONS TO VISIBILITY.


SDZ001>005-009-010-012>017-051000-
NORTHWEST AND NORTH CENTRAL SOUTH DAKOTA

CITY           SKY/WX    TMP DP  RH WIND       PRES   REMARKS
BUFFALO          N/A     55  42  61 S5        29.90S
FAITH            N/A     48  41  76 S16       29.97F
MOBRIDGE       CLEAR     51  44  77 SE9       29.94F
$$

SDZ012>016-024>037-041>051-057-063-072>074-051000-
SOUTHWEST AND SOUTH CENTRAL SOUTH DAKOTA

CITY           SKY/WX    TMP DP  RH WIND       PRES   REMARKS
RAPID CTY ARPT CLEAR     47  42  83 SE8       29.98F
PIERRE         PTCLDY    46  38  73 CALM      29.99F
CUSTER         CLEAR     48  34  58 W5        30.10F
ELLSWORTH AFB  CLEAR     56  41  57 S7        29.96F
PHILIP         MOCLDY    53  41  63 SE6       30.00F
PINE RIDGE     CLEAR     56  40  55 W6        30.02F
WINNER         FAIR      52  38  58 SW7       30.04S
$$

SDZ004>011-016>023-039-040-051000-
NORTHEAST SOUTH DAKOTA

CITY           SKY/WX    TMP DP  RH WIND       PRES   REMARKS
ABERDEEN       CLEAR     42  35  76 SW6       29.97S
WATERTOWN      CLEAR     41  34  76 S5        29.99F
BROOKINGS      CLEAR     44  35  70 SE6       30.01S
SISSETON         N/A     50  32  50 S6        29.94F
$$

SDZ017-020-022-023-036>040-048>070-051000-
SOUTHEAST SOUTH DAKOTA

CITY           SKY/WX    TMP DP  RH WIND       PRES   REMARKS
SIOUX FALLS    CLOUDY    41  36  82 CALM      30.02F
HURON          CLEAR     47  41  80 S5        29.99F
MITCHELL       CLEAR     47  42  83 SE3       30.02S
YANKTON        CLEAR     46  37  71 CALM      30.03R
$$

ABBREVIATIONS USED IN REMARKS
   TC - TEMPERATURE IN CELSIUS
  WCI - WIND CHILL INDEX
   HX - HEAT INDEX
  VSB - VISIBILITY





USA.gov is the U.S. government's official web portal to all federal, state and local government web resources and services.